1513472400.72,45339,6.88,72382.3,-15.05,-46.61,-46.61,0,*69
1513472401.99,45340,6.81,72378.3,-15.05,-46.61,-46.83,0,*6B
1513472403.26,45341,6.81,72380.5,-15.05,-46.61,-46.75,0,*63
1513472404.5,45342,6.88,72382.0,-15.05,-46.55,-46.75,0,*67
1513472405.79,45343,6.81,72380.5,-15.05,-46.61,-46.61,0,*64
1513472407.03,45344,6.88,72380.3,-15.05,-46.55,-46.75,0,*61
1513472408.3,45345,6.81,72382.0,-15.05,-46.61,-46.83,0,*6E
1513472409.55,45346,6.81,72380.8,-15.05,-46.75,-46.75,0,*61
1513472410.83,45347,6.88,72380.0,-15.05,-46.61,-46.61,0,*60
1513472412.08,45348,6.88,72382.5,-15.05,-46.83,-46.97,0,*6A
1513472413.3,45349,6.81,72378.3,-15.07,-46.83,-46.83,0,*6C
1513472414.52,45350,6.81,72380.5,-15.07,-46.83,-46.97,0,*61
1513472415.73,45351,6.88,72382.3,-15.07,-46.75,-46.83,0,*6C
1513472416.97,45352,6.88,72382.0,-15.07,-46.61,-46.75,0,*63
1513472418.19,45353,6.81,72382.3,-15.07,-46.83,-46.83,0,*67
1513472419.41,45354,6.88,72382.8,-15.07,-46.83,-46.97,0,*65
1513472420.63,45355,6.88,72382.0,-15.07,-46.83,-46.75,0,*68
1513472421.91,45356,6.88,72380.0,-15.09,-46.89,-46.83,0,*66
1513472423.14,45357,6.88,72380.3,-15.07,-46.97,-47.03,0,*6F
1513472424.41,45358,6.88,72382.3,-15.09,-47.03,-47.09,0,*68
1513472425.69,45359,6.88,72378.0,-15.09,-46.61,-46.61,0,*63
1513472426.96,45360,6.88,72382.0,-15.09,-46.41,-46.21,0,*6F
1513472428.22,45361,6.88,72382.5,-15.07,-46.41,-46.27,0,*66
1513472429.46,45362,6.81,72378.5,-15.07,-46.55,-46.61,0,*62
1513472430.71,45363,6.88,72380.5,-15.07,-46.61,-46.61,0,*64
1513472431.93,45364,6.88,72382.3,-15.07,-46.55,-46.75,0,*61
1513472433.19,45365,6.88,72380.3,-15.07,-46.61,-46.61,0,*62
1513472434.45,45366,6.88,72382.0,-15.09,-47.03,-47.09,0,*65
1513472435.72,45367,6.88,72384.0,-15.09,-46.83,-46.89,0,*64
1513472437.02,45368,6.88,72386.0,-15.09,-46.89,-46.89,0,*61
1513472438.29,45369,6.81,72382.8,-15.09,-46.83,-47.03,0,*69
1513472439.58,45370,6.81,72382.3,-15.09,-46.61,-46.41,0,*6A
1513472440.84,45371,6.81,72382.3,-15.09,-46.41,-46.21,0,*6F
1513472442.08,45372,6.88,72384.0,-15.07,-46.41,-46.35,0,*67
1513472443.29,45373,6.88,72380.8,-15.07,-46.55,-46.55,0,*65
1513472444.58,45374,6.81,72380.3,-15.09,-46.41,-46.61,0,*6E
1513472445.87,45375,6.81,72380.5,-15.09,-46.61,-46.61,0,*6D
1513472447.14,45376,6.81,72380.8,-15.09,-46.69,-46.83,0,*6A
1513472448.43,45377,6.81,72380.8,-15.09,-46.61,-46.69,0,*67
1513472449.72,45378,6.88,72384.0,-15.09,-46.69,-46.69,0,*60
1513472451.01,45379,6.81,72382.5,-15.09,-46.61,-46.61,0,*61
1513472452.3,45380,6.81,72380.5,-15.09,-46.49,-46.41,0,*6F
1513472453.57,45381,6.88,72380.0,-15.07,-46.27,-46.15,0,*69
1513472454.81,45382,6.88,72384.8,-15.07,-46.41,-46.55,0,*6E
1513472456.07,45383,6.81,72376.8,-15.09,-46.41,-46.35,0,*67
1513472457.37,45384,6.81,72382.5,-15.09,-46.41,-46.15,0,*62
1513472458.64,45385,6.88,72380.5,-15.09,-46.21,-46.15,0,*65
1513472459.89,45386,6.88,72382.0,-15.09,-45.95,-46.01,0,*6F
1513472461.16,45387,6.81,72380.5,-15.07,-46.27,-46.07,0,*6C
1513472462.38,45388,6.88,72384.3,-15.07,-46.35,-46.35,0,*61
1513472463.62,45389,6.88,72384.5,-15.07,-46.35,-46.15,0,*62
1513472464.87,45390,6.88,72384.8,-15.07,-46.15,-45.95,0,*63
1513472466.11,45391,6.88,72386.0,-15.09,-46.35,-46.35,0,*67
1513472467.32,45392,6.81,72376.5,-15.07,-45.95,-45.95,0,*6A
1513472468.59,45393,6.88,72382.0,-15.07,-46.07,-46.07,0,*6B
1513472469.8,45394,6.88,72386.3,-15.07,-45.95,-45.95,0,*6C
1513472471.04,45395,6.88,72382.3,-15.07,-46.07,-45.95,0,*65
1513472472.28,45396,6.88,72380.8,-15.05,-45.95,-45.87,0,*6F
1513472473.56,45397,6.81,72378.8,-15.05,-45.73,-45.73,0,*6D
1513472474.78,45398,6.88,72380.3,-15.03,-45.95,-45.87,0,*67
1513472476.04,45399,6.88,72382.0,-15.05,-46.07,-45.87,0,*68
1513472477.31,45400,6.88,72380.8,-15.05,-46.07,-45.95,0,*6C
1513472478.53,45401,6.81,72378.5,-15.03,-45.95,-45.87,0,*60
1513472479.74,45402,6.88,72380.5,-15.03,-45.95,-45.95,0,*60
1513472480.97,45403,6.88,72382.8,-15.03,-45.87,-45.73,0,*6A
1513472482.18,45404,6.81,72376.8,-15.03,-45.95,-45.95,0,*66
1513472483.42,45405,6.81,72374.8,-15.03,-45.87,-45.73,0,*6C
1513472484.66,45406,6.88,72380.3,-15.03,-46.27,-46.35,0,*67
1513472485.96,45407,6.88,72382.3,-15.01,-46.07,-46.07,0,*67
1513472487.21,45408,6.81,72376.0,-15.01,-46.21,-46.01,0,*6A
1513472488.44,45409,6.81,72376.0,-15.01,-45.87,-45.87,0,*69
1513472489.67,45410,6.88,72380.0,-15.01,-45.87,-45.87,0,*61
1513472490.94,45411,6.88,72380.3,-15.01,-45.67,-45.81,0,*68
1513472492.2,45412,6.88,72376.0,-15.01,-45.67,-45.81,0,*6B
1513472493.44,45413,6.88,72378.3,-15.01,-45.87,-45.87,0,*62
1513472494.67,45414,6.81,72376.5,-15.01,-45.61,-45.67,0,*63
1513472495.96,45415,6.81,72376.3,-15.01,-45.81,-45.81,0,*64
1513472497.16,45416,6.88,72380.0,-14.99,-45.67,-45.67,0,*67
1513472498.42,45417,6.81,72380.5,-14.99,-45.81,-45.81,0,*66
1513472499.68,45418,6.81,72380.3,-14.97,-45.95,-45.81,0,*62
1513472500.93,45419,6.88,72384.0,-14.97,-46.01,-45.95,0,*68
1513472502.17,45420,6.81,72382.0,-14.97,-46.01,-45.95,0,*62
1513472503.41,45421,6.88,72382.5,-14.97,-46.01,-45.95,0,*63
1513472504.71,45422,6.81,72380.3,-14.97,-46.15,-46.15,0,*6E
1513472505.98,45423,6.81,72380.3,-14.97,-46.15,-46.01,0,*6A
1513472507.27,45424,6.88,72380.5,-14.97,-46.41,-46.41,0,*68
1513472508.54,45425,6.88,72386.5,-14.97,-46.27,-46.21,0,*6F
1513472509.81,45426,6.81,72380.0,-14.97,-46.15,-46.01,0,*6F
1513472511.09,45427,6.81,72378.0,-14.97,-46.15,-46.01,0,*6E
1513472512.39,45428,6.88,72384.3,-14.97,-46.27,-46.15,0,*65
1513472513.68,45429,6.88,72382.5,-14.97,-46.27,-46.15,0,*64
1513472514.95,45430,6.81,72382.3,-14.97,-46.21,-46.41,0,*6B
1513472516.24,45431,6.88,72384.8,-14.97,-46.27,-46.41,0,*6C
1513472517.53,45432,6.81,72382.5,-14.97,-46.41,-46.41,0,*6F
1513472518.78,45433,6.81,72382.0,-14.95,-46.49,-46.61,0,*66
1513472520.07,45434,6.81,72382.5,-14.97,-46.49,-46.61,0,*63
1513472521.37,45435,6.81,72382.5,-14.97,-46.49,-46.49,0,*68
1513472522.66,45436,6.88,72384.5,-14.97,-46.41,-46.49,0,*63
1513472523.92,45437,6.81,72384.0,-14.95,-46.27,-46.41,0,*68
1513472525.21,45438,6.88,72382.5,-14.97,-46.27,-46.41,0,*65
1513472526.48,45439,6.81,72382.5,-14.99,-46.49,-46.89,0,*66
1513472527.69,45440,6.81,72384.0,-14.99,-46.55,-46.55,0,*64
1513472528.94,45441,6.88,72384.3,-14.99,-46.35,-46.49,0,*6E
1513472530.18,45442,6.81,72382.8,-14.99,-46.55,-46.27,0,*63
1513472531.42,45443,6.88,72384.8,-15.01,-46.55,-46.55,0,*67
1513472532.72,45444,6.81,72382.0,-14.97,-46.49,-46.49,0,*6E
1513472533.95,45445,6.88,72384.3,-14.99,-46.55,-46.69,0,*6E
1513472535.22,45446,6.81,72382.0,-15.01,-46.49,-46.55,0,*6F
1513472536.47,45447,6.88,72386.0,-14.99,-46.35,-46.49,0,*68
1513472537.71,45448,6.81,72384.0,-14.99,-46.35,-46.49,0,*67
1513472538.95,45449,6.81,72382.3,-14.99,-46.55,-46.49,0,*60
1513472540.22,45450,6.88,72386.8,-14.99,-46.27,-46.49,0,*6D
1513472541.47,45451,6.81,72382.8,-14.99,-46.27,-46.21,0,*62
1513472542.68,45452,6.88,72384.5,-14.99,-46.55,-46.55,0,*67
1513472543.94,45453,6.88,72386.5,-15.01,-46.55,-46.69,0,*69
1513472545.19,45454,6.81,72384.5,-14.99,-46.35,-46.49,0,*6A
1513472546.43,45455,6.88,72386.3,-14.99,-46.49,-46.55,0,*6D
1513472547.67,45456,6.81,72380.5,-14.99,-46.49,-46.55,0,*6E
1513472548.91,45457,6.88,72380.3,-14.99,-46.49,-46.55,0,*6F
1513472550.16,45458,6.88,72380.5,-14.99,-46.35,-46.27,0,*6E
1513472551.39,45459,6.81,72376.8,-14.99,-46.55,-46.69,0,*63
1513472552.61,45460,6.81,72374.8,-14.99,-46.55,-46.75,0,*64
1513472553.82,45461,6.88,72382.0,-14.99,-46.55,-46.75,0,*65
1513472555.06,45462,6.81,72376.3,-15.01,-46.75,-46.75,0,*64
1513472556.29,45463,6.81,72378.5,-14.99,-46.75,-46.89,0,*66
1513472557.53,45464,6.88,72386.0,-15.01,-46.75,-47.09,0,*68
1513472558.77,45465,6.81,72380.5,-15.01,-46.97,-46.97,0,*63
1513472559.97,45466,6.81,72384.0,-14.99,-46.75,-47.09,0,*6A
1513472561.19,45467,6.88,72386.8,-14.99,-46.97,-47.17,0,*68
1513472562.48,45468,6.88,72384.5,-15.01,-46.89,-46.89,0,*6E
1513472563.72,45469,6.88,72384.3,-15.01,-46.97,-47.09,0,*69
1513472564.99,45470,6.88,72386.5,-15.03,-47.03,-47.23,0,*67
1513472566.25,45471,6.88,72384.5,-15.03,-47.03,-47.37,0,*63
1513472567.52,45472,6.88,72384.5,-15.05,-46.97,-47.23,0,*6F
1513472568.76,45473,6.88,72386.3,-15.03,-47.03,-47.17,0,*63
1513472569.98,45474,6.88,72388.0,-15.03,-46.97,-47.17,0,*68
1513472571.21,45475,6.88,72386.8,-15.07,-46.97,-47.03,0,*68
1513472572.45,45476,6.88,72386.3,-15.03,-47.03,-47.17,0,*66
1513472573.74,45477,6.88,72386.5,-15.05,-47.03,-47.37,0,*63
1513472575.03,45478,6.81,72380.5,-15.05,-47.03,-47.23,0,*69
1513472576.32,45479,6.81,72384.3,-15.05,-47.03,-47.23,0,*68
1513472577.56,45480,6.88,72384.0,-15.05,-47.17,-47.17,0,*6C
1513472578.85,45481,6.81,72384.0,-15.05,-47.03,-47.37,0,*6A
1513472580.12,45482,6.88,72386.5,-15.09,-47.09,-47.37,0,*6F
1513472581.36,45483,6.88,72386.5,-15.07,-47.17,-47.23,0,*6A
1513472582.63,45484,6.81,72380.8,-15.09,-46.83,-46.89,0,*6E
1513472583.92,45485,6.88,72382.8,-15.09,-46.69,-46.89,0,*6B
1513472585.21,45486,6.81,72380.0,-15.09,-46.89,-47.03,0,*65
1513472586.48,45487,6.81,72380.8,-15.09,-47.09,-47.23,0,*6F
1513472587.78,45488,6.88,72386.0,-15.09,-46.89,-46.89,0,*68
1513472589.05,45489,6.81,72382.0,-15.09,-46.61,-46.83,0,*65
1513472590.26,45490,6.81,72384.0,-15.07,-46.75,-46.97,0,*63
1513472591.53,45491,6.88,72384.3,-15.09,-46.83,-46.89,0,*6A
1513472592.8,45492,6.88,72386.5,-15.09,-46.69,-46.83,0,*67
1513472594.09,45493,6.88,72386.5,-15.09,-46.69,-46.69,0,*62
1513472595.37,45494,6.88,72390.3,-15.09,-46.61,-46.83,0,*69
1513472596.66,45495,6.81,72384.8,-15.09,-46.69,-46.69,0,*64
1513472597.95,45496,6.81,72382.3,-15.09,-46.61,-46.41,0,*65
1513472599.24,45497,6.88,72382.8,-15.09,-46.69,-46.61,0,*6E
1513472600.49,45498,6.81,72382.5,-15.07,-46.61,-46.61,0,*67
1513472601.79,45499,6.81,72376.3,-15.09,-46.69,-46.89,0,*66
1513472603.06,45500,6.81,72378.0,-15.13,-46.83,-46.69,0,*66
1513472604.35,45501,6.88,72384.0,-15.13,-46.69,-46.69,0,*63
1513472605.64,45502,6.88,72384.8,-15.13,-46.69,-46.69,0,*60
1513472606.93,45503,6.81,72384.8,-15.13,-46.61,-46.41,0,*63
1513472608.2,45504,6.88,72386.5,-15.07,-46.15,-46.07,0,*60
1513472609.47,45505,6.81,72382.8,-15.09,-46.41,-46.35,0,*6F
1513472610.72,45506,6.88,72386.5,-15.09,-46.35,-46.21,0,*6A
1513472611.99,45507,6.88,72384.5,-15.09,-46.49,-46.35,0,*65
1513472613.27,45508,6.81,72382.5,-15.09,-46.69,-46.61,0,*69
1513472614.57,45509,6.81,72386.0,-15.09,-46.69,-46.89,0,*6E
1513472615.84,45510,6.88,72386.5,-15.09,-46.83,-46.89,0,*62
1513472617.11,45511,6.81,72382.3,-15.09,-46.61,-46.83,0,*65
1513472618.34,45512,6.81,72386.0,-15.07,-46.41,-46.55,0,*61
1513472619.64,45513,6.81,72382.8,-15.13,-46.69,-46.69,0,*60
1513472620.93,45514,6.88,72386.3,-15.13,-46.69,-46.89,0,*69
1513472622.22,45515,6.81,72386.8,-15.13,-46.61,-46.69,0,*6E
1513472623.48,45516,6.81,72384.5,-15.15,-46.69,-46.89,0,*6D
1513472624.76,45517,6.81,72384.8,-15.13,-46.83,-46.89,0,*6E
1513472626.01,45518,6.81,72386.8,-15.13,-46.83,-46.83,0,*6B
1513472627.26,45519,6.81,72384.3,-15.13,-46.83,-46.83,0,*6A
1513472628.53,45520,6.88,72386.3,-15.13,-46.69,-46.83,0,*64
1513472629.82,45521,6.88,72390.3,-15.13,-46.61,-46.69,0,*69
1513472631.11,45522,6.81,72390.3,-15.13,-46.61,-46.69,0,*6A
1513472632.36,45523,6.81,72388.8,-15.15,-46.69,-46.83,0,*61
1513472633.61,45524,6.81,72386.8,-15.13,-46.35,-46.21,0,*61
1513472634.89,45525,6.88,72386.5,-15.13,-46.61,-46.61,0,*65
1513472636.13,45526,6.81,72382.8,-15.15,-46.69,-46.75,0,*6D
1513472637.41,45527,6.81,72384.3,-15.13,-46.35,-46.41,0,*64
1513472638.68,45528,6.81,72384.3,-15.15,-46.27,-46.41,0,*6E
1513472639.95,45529,6.88,72384.5,-15.13,-46.49,-46.35,0,*62
1513472641.19,45530,6.88,72386.3,-15.15,-46.69,-46.75,0,*6A
1513472642.48,45531,6.88,72386.3,-15.13,-46.69,-46.61,0,*68
1513472643.77,45532,6.81,72380.5,-15.13,-46.61,-46.69,0,*6B
1513472644.98,45533,6.81,72382.0,-15.15,-46.75,-46.75,0,*64
1513472646.25,45534,6.88,72384.0,-15.15,-46.69,-46.89,0,*6D
1513472647.52,45535,6.81,72386.0,-15.15,-46.69,-46.49,0,*60
1513472648.78,45536,6.88,72386.8,-15.15,-46.69,-46.69,0,*61
1513472650.02,45537,6.81,72386.3,-15.15,-46.55,-46.69,0,*6F
1513472651.26,45538,6.81,72384.8,-15.15,-46.55,-46.41,0,*6A
1513472652.51,45539,6.88,72386.0,-15.15,-46.55,-46.49,0,*63
1513472653.77,45540,6.81,72384.5,-15.15,-46.49,-46.69,0,*62
1513472655.02,45541,6.81,72384.3,-15.15,-46.55,-46.49,0,*6C
1513472656.31,45542,6.88,72386.3,-15.17,-46.69,-46.69,0,*60
1513472657.55,45543,6.81,72386.0,-15.15,-46.69,-46.75,0,*6E
1513472658.82,45544,6.88,72386.0,-15.15,-46.49,-46.49,0,*64
1513472660.09,45545,6.81,72386.8,-15.13,-46.35,-46.41,0,*60
1513472661.34,45546,6.88,72388.0,-15.15,-46.55,-46.49,0,*6B
1513472662.6,45547,6.81,72382.0,-15.15,-46.41,-46.27,0,*67
1513472663.87,45548,6.88,72386.3,-15.15,-46.07,-46.07,0,*68
1513472665.12,45549,6.88,72384.3,-15.13,-45.95,-45.95,0,*6F
1513472666.36,45550,6.81,72382.0,-15.15,-46.27,-46.21,0,*67
1513472667.58,45551,6.88,72386.8,-15.15,-46.21,-46.21,0,*60
1513472668.82,45552,6.81,72380.3,-15.15,-46.21,-46.27,0,*65
1513472670.07,45553,6.81,72384.5,-15.13,-46.35,-46.21,0,*61
1513472671.31,45554,6.88,72386.3,-15.15,-46.21,-46.07,0,*61
1513472672.56,45555,6.88,72388.0,-15.09,-45.95,-46.01,0,*67
1513472673.78,45556,6.88,72384.5,-15.15,-46.01,-45.87,0,*6A
1513472675.04,45557,6.81,72380.0,-15.13,-45.81,-45.95,0,*65
1513472676.29,45558,6.81,72380.5,-15.13,-46.01,-46.01,0,*6F
1513472677.55,45559,6.88,72386.8,-15.09,-45.73,-45.95,0,*6D
1513472678.83,45560,6.88,72382.8,-15.09,-45.73,-45.73,0,*6F
1513472680.1,45561,6.81,72378.3,-15.13,-45.61,-45.73,0,*66
1513472681.34,45562,6.81,72380.3,-15.13,-45.61,-45.53,0,*67
1513472682.61,45563,6.81,72380.5,-15.09,-45.61,-45.73,0,*6F
1513472683.87,45564,6.81,72380.3,-15.09,-45.81,-45.95,0,*6E
1513472685.14,45565,6.81,72384.0,-15.09,-45.95,-45.81,0,*6F
1513472686.34,45566,6.88,72386.8,-15.07,-45.87,-45.87,0,*67
1513472687.59,45567,6.88,72386.5,-15.07,-45.95,-46.07,0,*6E
1513472688.89,45568,6.81,72384.8,-15.05,-46.15,-46.07,0,*68
1513472690.13,45569,6.81,72380.8,-15.07,-46.15,-45.95,0,*63
1513472691.4,45570,6.81,72380.3,-15.07,-46.15,-46.07,0,*63
1513472692.67,45571,6.81,72382.0,-15.07,-46.15,-46.27,0,*60
1513472693.89,45572,6.81,72380.5,-15.07,-46.35,-46.35,0,*62
1513472695.15,45573,6.81,72378.8,-15.07,-46.61,-46.61,0,*63
1513472696.44,45574,6.88,72380.5,-15.09,-46.61,-46.61,0,*6A
1513472697.67,45575,6.88,72386.3,-15.07,-46.61,-46.75,0,*60
1513472698.96,45576,6.81,72384.3,-15.09,-46.61,-46.69,0,*60
1513472700.26,45577,6.88,72384.0,-15.09,-46.49,-46.61,0,*63
1513472701.53,45578,6.88,72386.3,-15.09,-46.69,-46.83,0,*62
1513472702.82,45579,6.81,72380.8,-15.09,-46.69,-46.69,0,*67
1513472704.11,45580,6.81,72380.5,-15.09,-46.61,-46.69,0,*69
1513472705.4,45581,6.81,72384.0,-15.09,-46.69,-46.69,0,*60
1513472706.67,45582,6.81,72386.5,-15.09,-46.69,-46.83,0,*67
1513472707.96,45583,6.81,72382.8,-15.13,-46.69,-46.89,0,*67
1513472709.23,45584,6.81,72382.5,-15.13,-46.69,-46.83,0,*6A
1513472710.51,45585,6.88,72384.3,-15.13,-46.69,-46.83,0,*6B
1513472711.78,45586,6.81,72380.5,-15.13,-46.69,-46.83,0,*68
1513472713.07,45587,6.81,72382.8,-15.13,-46.69,-46.69,0,*6D
1513472714.34,45588,6.88,72386.0,-15.13,-46.69,-46.83,0,*66
1513472715.58,45589,6.81,72386.3,-15.15,-46.75,-46.89,0,*66
1513472716.82,45590,6.81,72386.0,-15.15,-46.55,-46.69,0,*62
1513472718.06,45591,6.81,72384.8,-15.15,-46.55,-46.69,0,*63
1513472719.32,45592,6.81,72382.5,-15.15,-46.49,-46.61,0,*65
1513472720.56,45593,6.81,72382.5,-15.15,-46.55,-46.69,0,*61
1513472721.85,45594,6.81,72382.0,-15.13,-46.69,-46.61,0,*67
1513472723.06,45595,6.81,72386.0,-15.15,-46.75,-46.75,0,*68
1513472724.3,45596,6.81,72384.0,-15.15,-46.75,-46.89,0,*68
1513472725.58,45597,6.81,72386.0,-15.15,-46.89,-46.89,0,*6A
1513472726.84,45598,6.81,72384.0,-15.15,-46.69,-46.89,0,*6B
1513472728.11,45599,6.88,72388.8,-15.17,-46.55,-46.49,0,*6B
1513472729.36,45600,6.81,72384.8,-15.15,-46.55,-46.49,0,*6A
1513472730.6,45601,6.88,72388.0,-15.15,-46.55,-46.69,0,*69
1513472731.88,45602,6.81,72384.0,-15.17,-46.41,-46.41,0,*67
1513472733.15,45603,6.81,72384.0,-15.17,-46.55,-46.69,0,*69
1513472734.44,45604,6.81,72384.0,-15.17,-46.49,-46.49,0,*61
1513472735.71,45605,6.81,72386.0,-15.17,-46.55,-46.69,0,*6F
1513472737.0,45606,6.81,72384.0,-15.17,-46.49,-46.41,0,*6B
1513472738.27,45607,6.81,72386.5,-15.17,-46.55,-46.69,0,*6D
1513472739.51,45608,6.81,72384.3,-15.19,-46.61,-46.55,0,*64
1513472740.8,45609,6.81,72386.5,-15.17,-46.49,-46.49,0,*6C
1513472742.07,45610,6.81,72386.3,-15.17,-46.55,-46.49,0,*69
1513472743.31,45611,6.81,72386.3,-15.19,-46.55,-46.69,0,*64
1513472744.6,45612,6.88,72388.3,-15.17,-46.41,-46.27,0,*66
1513472745.9,45613,6.88,72390.8,-15.17,-46.07,-46.07,0,*67
1513472747.17,45614,6.81,72384.5,-15.17,-46.21,-46.07,0,*64
1513472748.46,45615,6.81,72386.5,-15.17,-46.49,-46.41,0,*69
1513472749.73,45616,6.81,72386.3,-15.15,-46.49,-46.49,0,*60
1513472751.0,45617,6.81,72386.3,-15.17,-46.55,-46.69,0,*6C
1513472752.24,45618,6.81,72386.0,-15.15,-46.55,-46.49,0,*63
1513472753.51,45619,6.81,72384.8,-15.17,-46.55,-46.69,0,*62
1513472754.8,45620,6.81,72384.8,-15.17,-46.69,-46.49,0,*65
1513472756.02,45621,6.81,72386.0,-15.19,-46.83,-46.97,0,*6D
1513472757.24,45622,6.81,72386.0,-15.19,-46.83,-46.97,0,*6E
1513472758.46,45623,6.81,72382.5,-15.19,-46.83,-46.83,0,*6A
1513472759.75,45624,6.81,72384.3,-15.17,-46.69,-46.69,0,*63
1513472760.97,45625,6.81,72386.3,-15.19,-46.55,-46.55,0,*6C
1513472762.23,45626,6.81,72388.3,-15.17,-46.55,-46.69,0,*6E
1513472763.47,45627,6.81,72386.8,-15.19,-46.69,-46.75,0,*63
1513472764.69,45628,6.81,72384.8,-15.19,-46.75,-46.83,0,*68
1513472765.91,45629,6.81,72384.5,-15.19,-46.55,-46.55,0,*60
1513472767.15,45630,6.81,72386.5,-15.19,-46.61,-46.55,0,*6F
1513472768.37,45631,6.81,72384.0,-15.19,-46.55,-46.75,0,*6B
1513472769.66,45632,6.81,72386.5,-15.17,-46.69,-46.69,0,*64
1513472770.87,45633,6.81,72386.3,-15.19,-46.75,-46.83,0,*62
1513472772.09,45634,6.81,72386.8,-15.19,-46.55,-46.75,0,*6E
1513472773.3,45635,6.81,72386.3,-15.19,-46.75,-46.97,0,*61
1513472774.57,45636,6.88,72390.8,-15.23,-46.69,-46.89,0,*69
1513472775.82,45637,6.81,72384.5,-15.21,-46.83,-46.83,0,*64
1513472777.1,45638,6.81,72382.3,-15.21,-46.49,-46.55,0,*66
1513472778.37,45639,6.81,72384.5,-15.21,-46.61,-46.75,0,*6F
1513472779.62,45640,6.81,72382.5,-15.21,-46.55,-46.55,0,*64
1513472780.84,45641,6.81,72384.3,-15.23,-46.83,-46.83,0,*67
1513472782.09,45642,6.81,72384.0,-15.21,-46.83,-46.97,0,*63
1513472783.37,45643,6.88,72386.8,-15.23,-46.89,-47.23,0,*64
1513472784.63,45644,6.81,72386.5,-15.23,-46.89,-47.03,0,*61
1513472785.88,45645,6.81,72386.5,-15.23,-46.69,-46.83,0,*67
1513472787.12,45646,6.88,72386.0,-15.23,-46.69,-46.83,0,*64
1513472788.34,45647,6.81,72380.5,-15.23,-46.55,-46.55,0,*61
1513472789.56,45648,6.81,72382.5,-15.23,-46.55,-46.55,0,*6E
1513472790.82,45649,6.81,72386.3,-15.23,-46.41,-46.61,0,*6D
1513472792.04,45650,6.81,72382.5,-15.23,-46.55,-46.55,0,*67
1513472793.31,45651,6.81,72384.5,-15.21,-46.55,-46.49,0,*69
1513472794.53,45652,6.81,72384.8,-15.23,-46.55,-46.55,0,*65
1513472795.79,45653,6.81,72382.0,-15.23,-46.41,-46.41,0,*64
1513472797.04,45654,6.81,72386.3,-15.23,-46.55,-46.41,0,*66
1513472798.28,45655,6.81,72382.0,-15.23,-46.15,-46.21,0,*65
1513472799.56,45656,6.81,72382.8,-15.21,-45.95,-46.07,0,*6B
1513472800.77,45657,6.81,72382.0,-15.23,-46.21,-46.35,0,*65
1513472802.05,45658,6.81,72378.8,-15.21,-46.49,-46.35,0,*66
1513472803.29,45659,6.81,72376.3,-15.23,-46.41,-46.55,0,*6B
1513472804.53,45660,6.81,72380.5,-15.23,-46.61,-46.55,0,*63
1513472805.79,45661,6.81,72380.0,-15.23,-46.61,-46.61,0,*65
1513472807.05,45662,6.81,72380.5,-15.25,-46.69,-46.61,0,*68
1513472808.27,45663,6.81,72382.3,-15.25,-46.55,-46.55,0,*61
1513472809.49,45664,6.81,72376.3,-15.25,-46.35,-46.35,0,*66
1513472810.74,45665,6.81,72376.0,-15.23,-46.61,-46.83,0,*6D
1513472811.98,45666,6.81,72380.0,-15.23,-46.89,-47.09,0,*6B
1513472813.25,45667,6.81,72380.0,-15.23,-46.89,-47.03,0,*60
1513472814.49,45668,6.88,72382.8,-15.25,-46.83,-46.89,0,*60
1513472815.75,45669,6.81,72376.0,-15.27,-46.89,-47.09,0,*60
1513472817.02,45670,6.81,72382.0,-15.25,-46.89,-46.89,0,*63
1513472818.27,45671,6.81,72378.0,-15.25,-46.83,-46.89,0,*68
1513472819.56,45672,6.81,72380.5,-15.27,-46.69,-46.89,0,*6D
1513472820.79,45673,6.81,72378.5,-15.25,-46.75,-46.89,0,*63
1513472822.08,45674,6.81,72376.0,-15.27,-46.89,-46.89,0,*65
1513472823.35,45675,6.88,72380.0,-15.27,-46.89,-46.97,0,*6B
1513472824.61,45676,6.88,72380.5,-15.27,-46.75,-46.69,0,*6A
1513472825.89,45677,6.88,72386.0,-15.27,-46.49,-46.61,0,*6C
1513472827.18,45678,6.81,72380.8,-15.27,-46.69,-46.49,0,*6B
1513472828.47,45679,6.81,72382.8,-15.27,-46.69,-46.89,0,*66
1513472829.74,45680,6.81,72380.0,-15.25,-46.89,-46.89,0,*6C
1513472831.0,45681,6.81,72382.8,-15.27,-46.89,-47.09,0,*66
1513472832.25,45682,6.81,72380.8,-15.29,-46.97,-46.89,0,*6D
1513472833.49,45683,6.81,72382.3,-15.29,-46.75,-46.89,0,*60
1513472834.75,45684,6.81,72380.3,-15.29,-46.69,-46.89,0,*6A
1513472835.99,45685,6.81,72382.5,-15.29,-46.75,-46.69,0,*68
1513472837.25,45686,6.88,72386.0,-15.29,-46.69,-46.69,0,*66
1513472838.52,45687,6.81,72384.5,-15.29,-46.61,-46.69,0,*6F
1513472839.79,45688,6.81,72382.8,-15.31,-46.83,-46.89,0,*6B
1513472841.05,45689,6.81,72380.0,-15.29,-46.69,-46.69,0,*69
1513472842.32,45690,6.81,72382.3,-15.29,-46.61,-46.49,0,*6B
1513472843.58,45691,6.81,72382.5,-15.29,-46.69,-46.61,0,*68
1513472844.87,45692,6.81,72384.0,-15.31,-46.69,-46.69,0,*6A
1513472846.14,45693,6.81,72380.3,-15.31,-46.69,-46.75,0,*66
1513472847.4,45694,6.81,72386.0,-15.31,-46.75,-46.69,0,*61
1513472848.67,45695,6.81,72382.0,-15.31,-46.49,-46.55,0,*60
1513472849.95,45696,6.81,72380.3,-15.31,-46.49,-46.35,0,*65
1513472851.24,45697,6.81,72380.5,-15.31,-46.07,-46.15,0,*6C
1513472852.51,45698,6.81,72380.8,-15.31,-46.49,-46.55,0,*6D
1513472853.78,45699,6.81,72382.8,-15.31,-46.55,-46.69,0,*6E
1513472855.05,45700,6.81,72384.5,-15.29,-46.49,-46.49,0,*69
1513472856.33,45701,6.81,72386.8,-15.31,-46.35,-46.49,0,*6A
1513472857.6,45702,6.81,72384.3,-15.31,-46.27,-46.35,0,*61
1513472858.87,45703,6.81,72384.0,-15.31,-46.27,-46.35,0,*60
1513472860.17,45704,6.81,72386.0,-15.31,-46.15,-46.49,0,*6D
1513472861.47,45705,6.81,72382.0,-15.31,-46.27,-46.49,0,*6D
1513472862.74,45706,6.81,72382.0,-15.29,-46.41,-46.41,0,*6F
1513472863.98,45707,6.81,72384.0,-15.29,-46.21,-46.41,0,*68
1513472865.25,45708,6.81,72382.5,-15.29,-46.27,-46.41,0,*61
1513472866.55,45709,6.81,72386.8,-15.31,-46.49,-46.49,0,*69
1513472867.82,45710,6.81,72382.3,-15.31,-46.35,-46.49,0,*6A
1513472869.09,45711,6.81,72386.0,-15.31,-46.35,-46.49,0,*6B
1513472870.37,45712,6.81,72384.5,-15.31,-46.35,-46.49,0,*68
1513472871.67,45713,6.81,72384.0,-15.31,-46.49,-46.49,0,*62
1513472872.94,45714,6.88,72388.8,-15.29,-46.61,-46.49,0,*66
1513472874.18,45715,6.81,72386.8,-15.31,-46.55,-46.55,0,*64
1513472875.46,45716,6.81,72386.8,-15.31,-46.35,-46.49,0,*6C
1513472876.76,45717,6.81,72386.8,-15.31,-46.49,-46.49,0,*66
1513472878.03,45718,6.81,72386.5,-15.29,-46.27,-46.41,0,*60
1513472879.33,45719,6.81,72384.3,-15.31,-46.49,-46.49,0,*68
1513472880.57,45720,6.81,72384.3,-15.31,-46.55,-46.35,0,*64
1513472881.82,45721,6.81,72384.5,-15.31,-46.35,-46.35,0,*63
1513472883.06,45722,6.81,72386.0,-15.31,-46.55,-46.55,0,*60
1513472884.32,45723,6.81,72384.5,-15.31,-46.75,-46.69,0,*6C
1513472885.57,45724,6.81,72386.0,-15.31,-46.55,-46.55,0,*66
1513472886.82,45725,6.81,72384.8,-15.31,-46.83,-46.75,0,*6E
1513472888.06,45726,6.81,72384.5,-15.31,-46.75,-46.75,0,*64
1513472889.33,45727,6.81,72386.3,-15.31,-46.35,-46.49,0,*6E
1513472890.6,45728,6.81,72382.8,-15.31,-46.35,-46.27,0,*69
1513472891.88,45729,6.81,72386.5,-15.31,-46.27,-46.35,0,*68
1513472893.18,45730,6.81,72386.8,-15.35,-46.15,-46.15,0,*67
1513472894.42,45731,6.81,72386.5,-15.31,-46.35,-46.35,0,*62
1513472895.67,45732,6.81,72384.3,-15.35,-46.35,-46.35,0,*65
1513472896.97,45733,6.81,72384.0,-15.35,-46.15,-46.27,0,*65
1513472898.26,45734,6.81,72388.3,-15.31,-46.07,-46.15,0,*64
1513472899.56,45735,6.81,72386.8,-15.31,-46.15,-46.15,0,*66
1513472900.87,45736,6.88,72390.8,-15.31,-46.15,-46.15,0,*65
1513472902.09,45737,6.81,72388.3,-15.29,-46.01,-46.21,0,*6F
1513472903.38,45738,6.81,72386.5,-15.31,-46.07,-46.27,0,*69